| time (UTC) | temp F | wind direction | speed MPH | gust MPH | rain 1hr in | rain 24hr in | rain mn in | humidity % | barometer mb |
| 20260504140517 | 66 | 180 | 4.0 | 8.0 | 0.00 | 0.00 | 0.00 | 65 | 1008.5 |
| 20260504130517 | 63 | 135 | 3.0 | 6.0 | 0.00 | 0.00 | 0.00 | 73 | 1009.3 |
| 20260504110517 | 54 | 0.0 | 0.0 | 0.00 | 0.00 | 0.00 | 86 | 1009.5 | |
| 20260504100517 | 55 | 0.0 | 0.0 | 0.00 | 0.00 | 0.00 | 83 | 1009.1 | |
| 20260504081516 | 57 | 0.0 | 1.0 | 0.00 | 0.00 | 0.00 | 77 | 1009.2 | |
| 20260504080516 | 58 | 0.0 | 2.0 | 0.00 | 0.00 | 0.00 | 76 | 1009.2 | |
| 20260504050516 | 64 | 158 | 1.0 | 4.0 | 0.00 | 0.00 | 0.00 | 59 | 1009.0 |
| 20260504045517 | 64 | 180 | 2.0 | 5.0 | 0.00 | 0.00 | 0.00 | 59 | 1009.2 |
| 20260504044517 | 65 | 180 | 2.0 | 3.0 | 0.00 | 0.00 | 0.00 | 58 | 1009.5 |
| 20260504043517 | 65 | 203 | 2.0 | 5.0 | 0.00 | 0.00 | 0.00 | 57 | 1009.8 |
| 20260504042537 | 66 | 180 | 2.0 | 4.0 | 0.00 | 0.00 | 0.00 | 56 | 1010.1 |
| 20260504041537 | 66 | 203 | 2.0 | 6.0 | 0.00 | 0.00 | 0.00 | 55 | 1010.3 |
| 20260504040517 | 66 | 135 | 2.0 | 5.0 | 0.00 | 0.00 | 0.00 | 54 | 1010.3 |
| 20260504035517 | 66 | 113 | 3.0 | 6.0 | 0.00 | 0.00 | 0.00 | 54 | 1010.5 |
| 20260504034517 | 66 | 158 | 2.0 | 6.0 | 0.00 | 0.00 | 0.00 | 54 | 1010.5 |
| 20260504033517 | 66 | 158 | 2.0 | 4.0 | 0.00 | 0.00 | 0.00 | 54 | 1010.7 |
| 20260504032517 | 66 | 225 | 1.0 | 4.0 | 0.00 | 0.00 | 0.00 | 54 | 1010.6 |
| 20260504031517 | 66 | 135 | 2.0 | 5.0 | 0.00 | 0.00 | 0.00 | 53 | 1010.6 |
| 20260504030516 | 66 | 203 | 2.0 | 4.0 | 0.00 | 0.00 | 0.00 | 53 | 1010.4 |
| 20260504025537 | 66 | 158 | 1.0 | 3.0 | 0.00 | 0.00 | 0.00 | 54 | 1010.3 |
| 20260504024516 | 66 | 158 | 1.0 | 3.0 | 0.00 | 0.00 | 0.00 | 53 | 1010.3 |
| 20260504023516 | 66 | 180 | 2.0 | 5.0 | 0.00 | 0.00 | 0.00 | 53 | 1010.4 |
| 20260504022516 | 66 | 0.0 | 0.0 | 0.00 | 0.00 | 0.00 | 54 | 1010.3 | |
| 20260504021518 | 66 | 0.0 | 2.0 | 0.00 | 0.00 | 0.00 | 53 | 1010.2 | |
| 20260504020516 | 67 | 0.0 | 1.0 | 0.00 | 0.00 | 0.00 | 52 | 1010.1 | |
| 20260504015537 | 67 | 0.0 | 3.0 | 0.00 | 0.00 | 0.00 | 51 | 1010.1 | |
| 20260504014516 | 68 | 0.0 | 0.0 | 0.00 | 0.00 | 0.00 | 51 | 1009.9 | |
| 20260504013516 | 69 | 158 | 1.0 | 3.0 | 0.00 | 0.00 | 0.00 | 49 | 1009.9 |
| 20260504012517 | 70 | 180 | 1.0 | 3.0 | 0.00 | 0.00 | 0.00 | 47 | 1009.8 |
| 20260504011517 | 71 | 180 | 1.0 | 2.0 | 0.00 | 0.00 | 0.00 | 45 | 1009.9 |
| 20260504010516 | 72 | 180 | 1.0 | 3.0 | 0.00 | 0.00 | 0.00 | 43 | 1009.8 |
| 20260504005517 | 73 | 135 | 2.0 | 3.0 | 0.00 | 0.00 | 0.00 | 41 | 1009.8 |
| 20260504004516 | 73 | 180 | 2.0 | 7.0 | 0.00 | 0.00 | 0.00 | 41 | 1009.8 |
| 20260504003516 | 74 | 203 | 3.0 | 7.0 | 0.00 | 0.00 | 0.00 | 40 | 1009.8 |
| 20260504002516 | 74 | 180 | 3.0 | 8.0 | 0.00 | 0.00 | 0.00 | 39 | 1009.8 |
| 20260504001516 | 75 | 180 | 4.0 | 8.0 | 0.00 | 0.00 | 0.00 | 39 | 1009.8 |
| 20260504000516 | 75 | 180 | 3.0 | 7.0 | 0.00 | 0.00 | 0.00 | 38 | 1009.8 |
| 20260503235516 | 76 | 180 | 2.0 | 10.0 | 0.00 | 0.00 | 0.00 | 37 | 1010.0 |
| 20260503234556 | 76 | 203 | 3.0 | 7.0 | 0.00 | 0.00 | 0.00 | 36 | 1010.0 |
| 20260503233516 | 76 | 180 | 4.0 | 9.0 | 0.00 | 0.00 | 0.00 | 35 | 1010.0 |
| 20260503232516 | 76 | 203 | 5.0 | 9.0 | 0.00 | 0.00 | 0.00 | 35 | 1010.1 |
| 20260503231516 | 77 | 180 | 5.0 | 15.0 | 0.00 | 0.00 | 0.00 | 34 | 1010.1 |
| 20260503230516 | 77 | 180 | 5.0 | 14.0 | 0.00 | 0.00 | 0.00 | 33 | 1010.2 |
| 20260503225516 | 77 | 180 | 4.0 | 7.0 | 0.00 | 0.00 | 0.00 | 33 | 1010.3 |
| 20260503224516 | 77 | 180 | 4.0 | 10.0 | 0.00 | 0.00 | 0.00 | 33 | 1010.3 |
| 20260503223518 | 77 | 203 | 5.0 | 11.0 | 0.00 | 0.00 | 0.00 | 32 | 1010.5 |
| 20260503222518 | 77 | 180 | 5.0 | 11.0 | 0.00 | 0.00 | 0.00 | 32 | 1010.5 |
| 20260503221517 | 77 | 203 | 5.0 | 13.0 | 0.00 | 0.00 | 0.00 | 33 | 1010.6 |
| 20260503220538 | 76 | 225 | 6.0 | 13.0 | 0.00 | 0.00 | 0.00 | 31 | 1010.7 |
| 20260503215519 | 76 | 158 | 4.0 | 12.0 | 0.00 | 0.00 | 0.00 | 33 | 1010.6 |
| 20260503214518 | 76 | 180 | 4.0 | 11.0 | 0.00 | 0.00 | 0.00 | 33 | 1010.7 |
| 20260503213516 | 76 | 180 | 6.0 | 15.0 | 0.00 | 0.00 | 0.00 | 32 | 1010.7 |
| 20260503212518 | 76 | 180 | 5.0 | 10.0 | 0.00 | 0.00 | 0.00 | 33 | 1010.8 |
| 20260503211601 | 75 | 225 | 6.0 | 13.0 | 0.00 | 0.00 | 0.00 | 33 | 1011.1 |
| 20260503210516 | 75 | 180 | 7.0 | 15.0 | 0.00 | 0.00 | 0.00 | 34 | 1011.2 |
| 20260503205516 | 75 | 180 | 5.0 | 14.0 | 0.00 | 0.00 | 0.00 | 34 | 1011.5 |
| 20260503204516 | 74 | 203 | 5.0 | 11.0 | 0.00 | 0.00 | 0.00 | 36 | 1011.5 |
| 20260503203516 | 74 | 180 | 7.0 | 20.0 | 0.00 | 0.00 | 0.00 | 35 | 1011.7 |
| 20260503202516 | 74 | 158 | 6.0 | 17.0 | 0.00 | 0.00 | 0.00 | 35 | 1012.0 |
| 20260503201516 | 73 | 180 | 5.0 | 12.0 | 0.00 | 0.00 | 0.00 | 36 | 1012.2 |
| 20260503200516 | 73 | 203 | 5.0 | 14.0 | 0.00 | 0.00 | 0.00 | 36 | 1012.3 |
| 20260503195516 | 73 | 180 | 6.0 | 13.0 | 0.00 | 0.00 | 0.00 | 37 | 1012.6 |
| 20260503194516 | 72 | 158 | 6.0 | 15.0 | 0.00 | 0.00 | 0.00 | 36 | 1013.0 |
| 20260503193516 | 73 | 180 | 5.0 | 14.0 | 0.00 | 0.00 | 0.00 | 37 | 1013.3 |
| 20260503192516 | 72 | 158 | 6.0 | 11.0 | 0.00 | 0.00 | 0.00 | 38 | 1013.7 |
| 20260503191516 | 71 | 180 | 5.0 | 13.0 | 0.00 | 0.00 | 0.00 | 38 | 1013.9 |
| 20260503190516 | 71 | 135 | 5.0 | 13.0 | 0.00 | 0.00 | 0.00 | 38 | 1014.1 |
| 20260503185516 | 70 | 180 | 6.0 | 14.0 | 0.00 | 0.00 | 0.00 | 37 | 1014.4 |
| 20260503184556 | 70 | 180 | 5.0 | 12.0 | 0.00 | 0.00 | 0.00 | 38 | 1014.7 |
| 20260503183516 | 69 | 158 | 4.0 | 10.0 | 0.00 | 0.00 | 0.00 | 39 | 1014.8 |
| 20260503182536 | 69 | 158 | 5.0 | 14.0 | 0.00 | 0.00 | 0.00 | 37 | 1015.2 |
| 20260503181517 | 68 | 158 | 6.0 | 12.0 | 0.00 | 0.00 | 0.00 | 38 | 1015.5 |
| 20260503180516 | 67 | 158 | 8.0 | 15.0 | 0.00 | 0.00 | 0.00 | 38 | 1015.8 |
| 20260503175516 | 67 | 180 | 6.0 | 14.0 | 0.00 | 0.00 | 0.00 | 38 | 1016.2 |
| 20260503174516 | 67 | 158 | 5.0 | 9.0 | 0.00 | 0.00 | 0.00 | 40 | 1016.6 |
| 20260503173517 | 66 | 113 | 5.0 | 12.0 | 0.00 | 0.00 | 0.00 | 43 | 1016.9 |
| 20260503172517 | 66 | 158 | 5.0 | 12.0 | 0.00 | 0.00 | 0.00 | 43 | 1017.0 |
| 20260503171556 | 65 | 180 | 5.0 | 12.0 | 0.00 | 0.00 | 0.00 | 42 | 1017.4 |
| 20260503170516 | 65 | 180 | 6.0 | 14.0 | 0.00 | 0.00 | 0.00 | 43 | 1017.5 |
| 20260503150517 | 58 | 135 | 4.0 | 15.0 | 0.00 | 0.00 | 0.00 | 57 | 1019.0 |